Hourly Data Report for May 24, 2016

All times are specified in Local Standard Time (LST). Add 1 hour to adjust for Daylight Saving Time where and when it is observed.

LA RONGE RCS
SASKATCHEWAN

55°08'47.020" N
105°16'13.030" W
378.60 m
4064149
71586
XOX

Download Data

Hourly Data (May 2016)
Hourly Data Report for May 24, 2016
TIME Temp Definition
°C
Dew Point Definition
°C
Rel Hum Definition
%
Wind Dir Definition
10's deg

Wind Spd Definition
km/h
Visibility Definition
km
Stn Press Definition
kPa
Hmdx Definition


Wind Chill Definition


Weather Definition


00:00 6.9 0.9 66 7 13   96.70     LegendNANA
01:00 6.0 0.8 69 7 10   96.72     LegendNANA
02:00 6.2 1.9 74 6 12   96.74     LegendNANA
03:00 6.4 3.2 80 7 12   96.77     LegendNANA
04:00 6.5 4.0 84 7 14   96.81     LegendNANA
05:00 6.4 4.1 86 8 11   96.84     LegendNANA
06:00 6.6 4.3 85 8 10   96.89     LegendNANA
07:00 7.3 4.6 83 8 11   96.93     LegendNANA
08:00 7.6 4.6 81 8 12   96.97     LegendNANA
09:00 7.7 4.6 81 5 17   96.98     LegendNANA
10:00 9.4 5.1 75 5 16   96.97     LegendNANA
11:00 9.9 4.5 69 4 17   97.00     LegendNANA
12:00 11.5 4.8 63 8 15   96.96     LegendNANA
13:00 12.6 4.6 58 9 9   96.94     LegendNANA
14:00 14.0 4.9 54 14 12   96.93     LegendNANA
15:00 14.2 5.1 54 16 14   96.92     LegendNANA
16:00 14.8 5.6 54 15 12   96.91     LegendNANA
17:00 15.1 5.8 54 16 13   96.90     LegendNANA
18:00 14.5 6.0 57 16 13   96.88     LegendNANA
19:00 14.2 6.1 58 15 9   96.86     LegendNANA
20:00 13.4 6.0 61 16 11   96.83     LegendNANA
21:00 11.8 6.3 69 16 6   96.81     LegendNANA
22:00 9.8 6.3 79 18 6   96.87     LegendNANA
23:00 9.2 6.7 84 16 7   96.89     LegendNANA

Notes on Data Quality.

Legend

  • E = Estimated
  • M = Missing
  • NA = Not Available
Date modified: